Regional Weather Roundup
Issued by NWS

Home | Current Version | Previous Version | Text Only | Print | Product List | Glossary Off
Versions: 1 2 3 4 5 6 7 8 9 10 11 12 13 14 15 16 17 18 19 20 21 22 23 24 25 26 27

000
ASUS45 KBOI 180610
RWRID

IDAHO REGIONAL WEATHER ROUNDUP
NATIONAL WEATHER SERVICE BOISE ID
1100 PM MST SAT FEB 17 2018

NOTE: "FAIR" INDICATES FEW OR NO CLOUDS BELOW 12000 FEET
WITH NO SIGNIFICANT WEATHER AND/OR OBSTRUCTIONS TO VISIBILITY

IDZ012-014-180700-
SOUTHWEST IDAHO


CITY           SKY/WX    TMP DP  RH WIND       PRES   REMARKS
BOISE          CLOUDY    52  32  46 W16G28    29.63F
CALDWELL       CLOUDY    52  33  48 W14       29.63S
MOUNTAIN HOME  CLOUDY    45  37  73 W6        29.63F
$$

IDZ016-017-180700-
SOUTHCENTRAL IDAHO


CITY           SKY/WX    TMP DP  RH WIND       PRES   REMARKS
BURLEY         CLOUDY    50  22  33 S22G32    29.60F
JEROME         LGT RAIN  46  29  51 W12       29.63F
TWIN FALLS     CLOUDY    50  26  39 S22G29    29.61F
$$

IDZ019>023-180700-
SOUTHEAST IDAHO


CITY           SKY/WX    TMP DP  RH WIND       PRES   REMARKS
IDAHO FALLS    CLOUDY    43  24  47 SW20G31   29.56F
POCATELLO      CLOUDY    52  24  33 SW28G37   29.59F
REXBURG        CLOUDY    44  24  45 SW26G40   29.51F
$$

IDZ006-010-011-018-031-032-180700-
CENTRAL IDAHO MOUNTAINS


CITY           SKY/WX    TMP DP  RH WIND       PRES   REMARKS
MCCALL         MIX PCPN  35  28  75 W8        29.55F WCI  29
HAILEY         DRIZZLE   37  34  87 S9        29.61F WCI  31
STANLEY          N/A     32  29  88 NW3       29.56F
SALMON         LGT RAIN  34  34 100 SE3       29.51R
CHALLIS        CLOUDY    38  32  79 SE8       29.48R WCI  32
$$

IDZ002-004-006-007-026-180700-
NORTHERN IDAHO


CITY           SKY/WX    TMP DP  RH WIND       PRES   REMARKS
LEWISTON       CLOUDY    44  32  62 SW3       29.57S
LOWELL           N/A     33  33 100 S5        29.61S WCI  29
COEUR D`ALENE  MOCLDY    35  28  75 SW6       29.49S WCI  30
MULLAN PASS    CLOUDY    21  19  92 NW8G25    29.38S WCI  11
$$




USA.gov is the U.S. government's official web portal to all federal, state and local government web resources and services.